Simultaneous Nadir Overpasses (SNOs) Predictions

Prediction of SNOs between GOES-16 and LANDSAT-8 Satellite Orbit:

Table of predicted SNOs for the next 14.0 days since TLE Epoch: 9/28/2024
Index Date Time (GOES-16) GOES-16 Lat,Lon LANDSAT-8 Lat,Lon Distance(km) Time Diff (sec)
1 09/28/2024 03:21:39 0.07, -75.19 -0.42, -77.63 276.52 80
2 09/30/2024 03:12:04 0.07, -75.21 0.16, -74.65 62.92 80
3 10/02/2024 02:59:50 0.06, -75.23 0.84, -71.69 403.25 80
4 10/02/2024 15:21:04 -0.07, -75.25 0.29, -76.83 179.86 80
5 10/04/2024 15:06:09 -0.06, -75.28 -0.37, -73.86 161.46 80
6 10/05/2024 03:30:12 0.06, -75.27 -0.73, -79.05 429.52 80
7 10/07/2024 03:15:16 0.06, -75.30 -0.07, -76.07 87.66 80
8 10/09/2024 03:05:39 0.06, -75.33 0.55, -73.09 254.75 80
9 10/09/2024 15:26:53 -0.06, -75.35 0.55, -78.24 327.89 80
10 10/11/2024 15:11:55 -0.05, -75.38 -0.06, -75.25 15.23 80
